Weather History for Lamoni, IA

Change the Weather History Date:

Tuesday, July 1, 2014

  Actual Average Record
Temperature  
Mean Temperature 70 °F 74 °F  
Max Temperature 81 °F 84 °F 97 °F (1970)
Min Temperature 59 °F 64 °F 55 °F (2013)
Degree Days  
Heating Degree Days 0 0  
Month to date heating degree days 0 0  
Since 1 June heating degree days 5 19  
Since 1 July heating degree days 0 0  
Cooling Degree Days 5 9  
Month to date cooling degree days 5 9  
Year to date cooling degree days 336 256  
Since 1 June cooling degree days 224 202  
Growing Degree Days 22 (Base 50)    
Moisture  
Dew Point 61 °F    
Average Humidity 73    
Maximum Humidity 100    
Minimum Humidity 45    
Precipitation  
Precipitation 0.00 in 0.17 in 1.13 in (1965)
Month to date precipitation 0.00 0.17  
Sea Level Pressure  
Sea Level Pressure 29.84 in    
Wind  
Wind Speed 13 mph (WSW)    
Max Wind Speed 24 mph    
Max Gust Speed 30 mph    
Visibility 7 miles    
Events Fog    
T = Trace of Precipitation, MM = Missing Value Source: NWS Daily Summary

Daily Weather History Graph

Daily Weather History Graph

Search for Another Location

Airport:

Trip Planner

Search our weather history database for the weather conditions in past years. The results will help you decide how hot, cold, wet, or windy it might be!

Date:

Astronomy

Jul. 01, 2014 Rise Set
Actual Time 5:48 AM CDT 8:50 PM CDT
Civil Twilight 5:15 AM CDT 9:23 PM CDT
Nautical Twilight 4:33 AM CDT 10:05 PM CDT
Astronomical Twilight 3:43 AM CDT 10:54 PM CDT
Moon 9:58 AM CDT (7/1) 11:12 PM CDT (7/1)
Length of Visible Light 16h 08m
Length of Day
15h 01m
Waxing Crescent, 17% of the Moon is Illuminated
Jul 1
Waxing Crescent
Jul 5
First Quarter
Jul 12
Full
Jul 18
Last Quarter
Jul 26
New

Hourly Weather History & Observations

Time (CDT) Temp. Heat Index Dew Point Humidity Pressure Visibility Wind Dir Wind Speed Gust Speed Precip Events Conditions
12:02 AM 64.9 °F - 63.0 °F 93% 29.79 in 1.8 mi Calm Calm - N/A   Clear
12:17 AM 64.9 °F - 64.0 °F 97% 29.80 in 2.5 mi SSW 4.6 mph - N/A   Clear
12:22 AM 64.9 °F - 64.0 °F 97% 29.80 in 4.0 mi South 4.6 mph - N/A   Partly Cloudy
12:26 AM 64.0 °F - 63.0 °F 96% 29.80 in 1.8 mi South 5.8 mph - N/A   Scattered Clouds
12:38 AM 64.9 °F - 64.0 °F 97% 29.81 in 2.0 mi South 6.9 mph - N/A   Mostly Cloudy
12:42 AM 64.9 °F - 64.0 °F 97% 29.83 in 4.0 mi SSW 6.9 mph - N/A   Mist
12:53 AM 64.9 °F - 64.0 °F 97% 29.81 in 1.8 mi SSW 6.9 mph - N/A   Mist
1:05 AM - - - N/A% 29.81 in 0.5 mi South 4.6 mph - N/A Fog Fog
1:44 AM 64.9 °F - 64.0 °F 97% 29.83 in 1.8 mi SW 9.2 mph - N/A   Mist
1:53 AM 64.9 °F - 64.0 °F 97% 29.81 in 1.0 mi SW 9.2 mph - N/A   Mist
2:02 AM 64.9 °F - 64.0 °F 97% 29.83 in 0.8 mi SW 5.8 mph - N/A   Mist
2:10 AM 64.9 °F - 64.0 °F 97% 29.82 in 1.8 mi SW 5.8 mph - N/A   Mist
2:15 AM 64.9 °F - 64.0 °F 97% 29.82 in 3.0 mi SW 5.8 mph - N/A   Mist
2:53 AM 64.9 °F - 64.0 °F 97% 29.78 in 9.0 mi Calm Calm - N/A   Clear
3:53 AM 64.0 °F - 63.0 °F 96% 29.80 in 10.0 mi West 10.4 mph - N/A   Unknown
4:53 AM 64.9 °F - 62.1 °F 90% 29.85 in 10.0 mi SW 9.2 mph - N/A   Clear
5:53 AM 64.0 °F - 62.1 °F 93% 29.83 in 10.0 mi WSW 8.1 mph - N/A   Clear
6:53 AM 64.9 °F - 62.1 °F 90% 29.85 in 10.0 mi WSW 10.4 mph - N/A   Clear
7:53 AM 66.0 °F - 61.0 °F 84% 29.86 in 10.0 mi SW 11.5 mph - N/A   Clear
8:53 AM 69.1 °F - 61.0 °F 75% 29.86 in 10.0 mi WSW 11.5 mph - N/A   Clear
9:53 AM 72.0 °F - 60.1 °F 66% 29.86 in 10.0 mi West 12.7 mph - N/A   Clear
10:53 AM 75.0 °F - 60.1 °F 60% 29.82 in 10.0 mi WNW 20.7 mph 26.5 mph N/A   Clear
11:53 AM 73.9 °F - 59.0 °F 59% 29.85 in 10.0 mi West 15.0 mph 20.7 mph N/A   Clear
12:53 PM 77.0 °F - 60.1 °F 56% 29.86 in 10.0 mi West 16.1 mph 27.6 mph N/A   Clear
1:53 PM 79.0 °F - 60.1 °F 52% 29.85 in 10.0 mi West 20.7 mph - N/A   Clear
2:53 PM 80.1 °F 80.9 °F 60.1 °F 50% 29.85 in 10.0 mi West 19.6 mph 24.2 mph N/A   Partly Cloudy
3:53 PM 77.0 °F - 59.0 °F 54% 29.84 in 10.0 mi West 18.4 mph 26.5 mph N/A   Mostly Cloudy
4:53 PM 80.1 °F 80.6 °F 57.9 °F 47% 29.83 in 10.0 mi West 15.0 mph 29.9 mph N/A   Scattered Clouds
5:53 PM 75.9 °F - 60.1 °F 58% 29.85 in 10.0 mi NW 18.4 mph 28.8 mph N/A   Scattered Clouds
6:53 PM 75.0 °F - 55.9 °F 51% 29.85 in 10.0 mi NW 18.4 mph 27.6 mph N/A   Clear
7:53 PM 71.1 °F - 55.0 °F 57% 29.86 in 10.0 mi NW 12.7 mph 23.0 mph N/A   Clear
8:53 PM 68.0 °F - 55.0 °F 63% 29.88 in 10.0 mi NW 11.5 mph - N/A   Partly Cloudy
9:53 PM 66.0 °F - 55.9 °F 70% 29.91 in 10.0 mi NW 9.2 mph - N/A   Mostly Cloudy
10:53 PM 64.0 °F - 55.9 °F 75% 29.94 in 10.0 mi NW 8.1 mph - N/A   Mostly Cloudy
11:53 PM 62.1 °F - 53.1 °F 72% 29.96 in 10.0 mi WNW 6.9 mph - N/A   Partly Cloudy